Tracking 19489 objects as of 22-Jan-2019
HD Live streaming from Space Station
objects crossing your sky now

ZA-AEROSAT

Track ZA-AEROSAT now!
10-day predictions
ZA-AEROSAT is classified as:


NORAD ID: 42713
Int'l Code: 1998-067LU
Perigee: 336.6 km
Apogee: 336.9 km
Inclination: 51.6 °
Period: 91.1 minutes
Semi major axis: 6707 km
RCS: Unknown
Launch date: November 20, 1998
Source: South Africa (SAFR)
Launch site: TYURATAM MISSILE AND SPACE COMPLEX (TTMTR)

Uplink (MHz):
Downlink (MHz): 437.195
Beacon (MHz):
Mode: 9600bps GMSK
Call sign: ON01AZ
Status: Active

aabbcc
Your satellite tracking list
Your tracking list is empty




NASA's NSSDC Master Catalog

Two Line Element Set (TLE):
1 42713U 98067LU  19021.28496044 +.00038284 +00000-0 +20153-3 0  9996
2 42713 051.6348 320.5858 0000242 050.3839 309.7184 15.80297042095861
Source of the keplerian elements: AMSAT